GPM-CORE

Last updated on Mon Sep 21 2026 00:02:45 GMT+0000 (Coordinated Universal Time)

1 39574U 14009C 26263.56189393 .00007521 00000+0 16342-3 0 9998 2 39574 64.9723 348.5359 0011011 263.2907 96.6980 15.45032399712549
UTC large
Height (km)
Speed (km/s)
/
Latitude / Longitude
Inclination (degrees)
Orbital Period (minutes)
Azimuth
Elevation
Range (km)
Doppler Factor

Next 0 passes for location: London (51.5072 / 0.1276)

No passes found over London.
GPM-CORE